[[{"header":{"parameterUnit":"m.s-1","parameterCategory":1,"la1":30.2991,"la2":30.254,"lo1":-89.0895,"lo2":-89.0444,"dy":0.0017,"dx":0.0017,"nx":28,"ny":28,"refTime":"2023-08-23T21:00:00:Z","depth":0,"parameterNumber":2,"parameterNumberName":"U-component_of_WINDS"},"data":[0,0,0,0,0,0,0,0,0,0,0,0,0,0,0,0,0,0,0,0,0,0,0,0,0,0,0,0,0,0,0,0,0,0,0,0,0,0,0,0,0,0,0,0,0,0,0,0,0,0,0,0,0,0,0,0,0,0,0.9261,0.9261,0,0.9255,0.9255,0.9255,0.9232,0.9231,0.9231,0.923,0.9224,0.9225,0.9225,0,0,0,0,0,0,0,0,0,0,0,0,0,0.925,0.925,0.9261,0.9261,0.9261,0.9255,0.9255,0.9255,0.9232,0.9231,0.9231,0.923,0.9224,0.9225,0.9225,0,0,0,0,0,0,0,0,0,0,0,0,0,0.9251,0.925,0.9261,0.9248,0.9247,0.9255,0.9255,0.9255,0.9232,0.9231,0.9231,0.923,0.9224,0.9225,0.9225,0.9245,0,0,0.9227,0.9227,0,0,0,0,0,0,0,0,0.9251,0.9251,0.925,0.9249,0.9248,0.9244,0.9249,0.9252,0.9232,0.9238,0.923,0.9229,0.9231,0.9231,0.9232,0.9244,0.9244,0.9227,0.9227,0.9227,0.9228,0,0,0,0,0,0,0,0.9251,0.9251,0.9259,0.925,0.9249,0.9243,0.9242,0.925,0.9239,0.9237,0.9236,0.9235,0.9231,0.9232,0.9232,0.9244,0.9227,0.9227,0.9228,0.9228,0.9271,0.9272,0,0,0,0,0,0,0.9252,0.9251,0.9259,0.9259,0.9247,0.9244,0.9243,0.9246,0.9239,0.9237,0.9236,0.9234,0.9231,0.9231,0.9231,0.9253,0.9227,0.9228,0.9228,0.927,0.9271,0.9272,0,0,0,0,0,0,0.9252,0.9253,0.9259,0.9254,0.9255,0.9245,0.9248,0.9246,0.9247,0.9238,0.9236,0.9239,0.923,0.9231,0.9241,0.9252,0.9228,0.9229,0.9269,0.927,0.9272,0.9297,0,0,0,0,0,0,0.9252,0.9253,0.9261,0.9255,0.9255,0.9269,0.9249,0.9247,0.9248,0.9246,0.924,0.9239,0.923,0.9241,0.9242,0.9253,0.9229,0.9268,0.927,0.9271,0.9295,0.9299,0.9302,0,0,0,0,0,0.9252,0.9268,0.9262,0.9263,0.9264,0.927,0.927,0.926,0.9249,0.9256,0.925,0.9239,0.9251,0.9242,0.9243,0.9254,0.9267,0.9269,0.9271,0.9293,0.9298,0.9302,0,0,0,0,0,0,0.9276,0.9267,0.926,0.9275,0.9274,0.9266,0.9275,0.9265,0.9267,0.9264,0.9251,0.925,0.9263,0.926,0.9249,0.9272,0.9257,0.9259,0.9274,0.9278,0.9282,0.9282,0.9229,0,0,0,0,0,0.9284,0.9289,0.9281,0.9295,0.9295,0.9285,0.9287,0.9279,0.9277,0.9277,0.9272,0.927,0.9273,0.9275,0.9278,0.9294,0.9292,0.9303,0.9306,0.9309,0.9311,0.9318,0.9322,0.9278,0.9278,0.9278,0,0,0.9299,0.9294,0.9299,0.93,0.9298,0.9304,0.9285,0.9292,0.9296,0.9278,0.9287,0.9283,0.928,0.9294,0.9299,0.9291,0.9323,0.9311,0.9314,0.9314,0.932,0.9325,0.9328,0.9279,0.9279,0.9279,0,0,0.9329,0.9327,0.9338,0.9336,0.9333,0.9326,0.9329,0.9323,0.9319,0.9329,0.9315,0.9319,0.9325,0.9323,0.9323,0.9352,0.9341,0.9353,0.9371,0.9379,0.9382,0.9385,0.9394,0.9398,0.9355,0.9355,0.9355,0,0.9348,0.9356,0.9345,0.9352,0.9353,0.9336,0.9347,0.9346,0.9344,0.9344,0.9336,0.9343,0.934,0.9352,0.9358,0.9359,0.9361,0.9353,0.9383,0.9385,0.9388,0.9397,0.94,0.9357,0.9356,0.9356,0.9356,0,0.9379,0.9385,0.9394,0.9392,0.9394,0.9403,0.9393,0.9396,0.9387,0.9381,0.9391,0.9386,0.9387,0.939,0.9382,0.94,0.9395,0.9385,0.9369,0.9394,0.9402,0.9405,0.9359,0.9358,0.9358,0.9357,0,0,0.9425,0.9416,0.9419,0.9418,0.9413,0.9417,0.9425,0.9426,0.9428,0.9427,0.9433,0.9439,0.9429,0.9428,0.942,0.9427,0.9448,0.9415,0.9415,0.9421,0.9467,0.9474,0.9478,0.9441,0.9442,0.9442,0.9467,0,0.9452,0.9466,0.9455,0.9471,0.9475,0.9459,0.9466,0.9464,0.9458,0.9461,0.9455,0.9458,0.9445,0.9445,0.9451,0.9444,0.9457,0.9442,0.9446,0.9446,0.9446,0.9483,0.949,0.9514,0.947,0.947,0.9471,0,0.9487,0.9487,0.9502,0.9496,0.9497,0.9504,0.9503,0.9506,0.9503,0.9498,0.9498,0.9487,0.9494,0.9479,0.9488,0.9478,0.9479,0.9476,0.9476,0.9476,0.9459,0.9482,0.9522,0.9525,0.9476,0.9475,0.9475,0,0.9517,0.9522,0.9531,0.953,0.9523,0.9527,0.9525,0.952,0.9521,0.952,0.9521,0.9521,0.9521,0.9521,0.9511,0.9501,0.9521,0.9505,0.9516,0.9517,0.9521,0.952,0.956,0.9523,0.9522,0.9522,0.9522,0,0.9549,0.9559,0.9544,0.955,0.956,0.9548,0.9559,0.9554,0.955,0.9554,0.9541,0.9545,0.9531,0.9534,0.9526,0.9534,0.9534,0.953,0.9528,0.9531,0.9531,0.9531,0.9528,0.9523,0.9523,0.9523,0.9523,0,0.9585,0.9576,0.9585,0.9576,0.9575,0.9582,0.9575,0.958,0.9573,0.9579,0.9579,0.9569,0.9571,0.9561,0.9561,0.9556,0.9567,0.9563,0.9569,0.9567,0.9578,0.9577,0.9618,0.9622,0.9583,0.9583,0.9584,0,0.9605,0.9612,0.9605,0.9607,0.9604,0.9607,0.9608,0.9596,0.9597,0.9593,0.9598,0.9599,0.9599,0.9603,0.9596,0.9596,0.959,0.9605,0.959,0.9593,0.9589,0.9589,0.9589,0.9607,0.9608,0.9608,0.9609,0,0.9642,0.9637,0.9639,0.9638,0.9639,0.9638,0.9637,0.9639,0.9626,0.9628,0.963,0.963,0.963,0.9631,0.9629,0.9626,0.9615,0.9613,0.9616,0.9619,0.9621,0.9619,0.9576,0.9612,0.9612,0.9612,0.9612,0.9611,0.967,0.9675,0.9671,0.9672,0.967,0.9668,0.9672,0.9665,0.9667,0.9666,0.9659,0.9662,0.9657,0.9654,0.9651,0.9653,0.9646,0.965,0.9651,0.9652,0.9653,0.9622,0.9653,0.9653,0.9653,0.9653,0.9653,0,0.9706,0.9702,0.9704,0.9701,0.9702,0.9692,0.969,0.9691,0.9694,0.9691,0.9691,0.9692,0.9693,0.9685,0.9685,0.9687,0.9682,0.9688,0.9687,0.9686,0.966,0.9657,0.9692,0.9692,0.9692,0.9692,0.9692,0.9692,0.9724,0.9732,0.9726,0.9732,0.9728,0.9731,0.973,0.9728,0.9725,0.9728,0.9728,0.9723,0.9717,0.9716,0.9716,0.9714,0.9713,0.972,0.9716,0.9692,0.9688,0.9684,0.9682,0.9721,0.9721,0.9742,0.9742,0.9742]},{"header":{"parameterUnit":"m.s-1","parameterCategory":1,"la1":30.2991,"la2":30.254,"lo1":-89.0895,"lo2":-89.0444,"dy":0.0017,"dx":0.0017,"nx":28,"ny":28,"refTime":"2023-08-23T21:00:00:Z","depth":0,"parameterNumber":3,"parameterNumberName":"V-component_of_WINDS"},"data":[0,0,0,0,0,0,0,0,0,0,0,0,0,0,0,0,0,0,0,0,0,0,0,0,0,0,0,0,0,0,0,0,0,0,0,0,0,0,0,0,0,0,0,0,0,0,0,0,0,0,0,0,0,0,0,0,0,0,-0.3174,-0.3174,0,-0.3169,-0.3169,-0.3169,-0.3171,-0.3171,-0.3171,-0.3171,-0.3166,-0.3166,-0.3166,0,0,0,0,0,0,0,0,0,0,0,0,0,-0.3187,-0.3186,-0.3174,-0.3174,-0.3174,-0.3169,-0.3169,-0.3169,-0.3171,-0.3171,-0.3171,-0.3171,-0.3166,-0.3166,-0.3166,0,0,0,0,0,0,0,0,0,0,0,0,0,-0.3181,-0.3186,-0.3174,-0.3174,-0.3174,-0.3169,-0.3169,-0.3169,-0.3171,-0.3171,-0.3171,-0.3171,-0.3166,-0.3166,-0.3166,-0.316,0,0,-0.3165,-0.3164,0,0,0,0,0,0,0,0,-0.3182,-0.3181,-0.3174,-0.3174,-0.3174,-0.3171,-0.3171,-0.3166,-0.3171,-0.3172,-0.3171,-0.3172,-0.3168,-0.3167,-0.3166,-0.3159,-0.3159,-0.3165,-0.3164,-0.3164,-0.3164,0,0,0,0,0,0,0,-0.3182,-0.3181,-0.3172,-0.3174,-0.3174,-0.3175,-0.3175,-0.317,-0.3169,-0.3172,-0.3172,-0.3172,-0.3168,-0.3166,-0.3166,-0.3159,-0.3165,-0.3164,-0.3164,-0.3164,-0.3148,-0.3148,0,0,0,0,0,0,-0.3182,-0.3181,-0.3172,-0.3172,-0.3179,-0.3175,-0.3174,-0.3172,-0.3169,-0.3169,-0.3171,-0.3172,-0.3167,-0.3166,-0.3165,-0.3159,-0.3164,-0.3164,-0.3164,-0.3148,-0.3148,-0.3148,0,0,0,0,0,0,-0.3183,-0.3181,-0.3172,-0.3177,-0.3176,-0.3174,-0.3172,-0.3171,-0.317,-0.3168,-0.3168,-0.317,-0.3167,-0.3166,-0.3161,-0.3158,-0.3164,-0.3163,-0.3149,-0.3148,-0.3148,-0.3144,0,0,0,0,0,0,-0.3183,-0.3181,-0.3179,-0.3177,-0.3175,-0.3168,-0.3171,-0.3171,-0.3169,-0.317,-0.3167,-0.3167,-0.3167,-0.3162,-0.3161,-0.3158,-0.3163,-0.3149,-0.3148,-0.3148,-0.3145,-0.3144,-0.3143,0,0,0,0,0,-0.3183,-0.3178,-0.3179,-0.3178,-0.3172,-0.3168,-0.3167,-0.3167,-0.3169,-0.3167,-0.3166,-0.3167,-0.3159,-0.3161,-0.316,-0.3157,-0.3149,-0.3149,-0.3148,-0.3145,-0.3144,-0.3143,0,0,0,0,0,0,-0.318,-0.3178,-0.3178,-0.3172,-0.317,-0.3168,-0.3165,-0.3166,-0.3163,-0.3164,-0.3164,-0.3163,-0.3158,-0.3157,-0.316,-0.3152,-0.3154,-0.3154,-0.3152,-0.3151,-0.3151,-0.3151,-0.3163,0,0,0,0,0,-0.3178,-0.3175,-0.3173,-0.3168,-0.3167,-0.3166,-0.3164,-0.3164,-0.3162,-0.3161,-0.316,-0.3158,-0.3155,-0.3153,-0.315,-0.3145,-0.3144,-0.3142,-0.3141,-0.3141,-0.314,-0.3138,-0.3137,-0.3147,-0.3147,-0.3147,0,0,-0.3175,-0.3173,-0.3171,-0.3167,-0.3165,-0.3162,-0.3165,-0.3161,-0.3159,-0.3161,-0.3156,-0.3155,-0.3153,-0.3148,-0.3146,-0.3147,-0.3138,-0.314,-0.314,-0.314,-0.3137,-0.3136,-0.3135,-0.3146,-0.3146,-0.3146,0,0,-0.3167,-0.3166,-0.3161,-0.316,-0.3157,-0.3157,-0.3156,-0.3154,-0.3154,-0.3149,-0.3151,-0.3148,-0.3143,-0.3142,-0.314,-0.3133,-0.3134,-0.3132,-0.3129,-0.3126,-0.3125,-0.3125,-0.3122,-0.3122,-0.3132,-0.3132,-0.3132,0,-0.3163,-0.3158,-0.3159,-0.3155,-0.3153,-0.3155,-0.3151,-0.315,-0.3147,-0.3145,-0.3147,-0.3141,-0.314,-0.3135,-0.3133,-0.3132,-0.3131,-0.3132,-0.3125,-0.3125,-0.3124,-0.3122,-0.3121,-0.3132,-0.3132,-0.3132,-0.3132,0,-0.3154,-0.3151,-0.3147,-0.3144,-0.3143,-0.3139,-0.3139,-0.3137,-0.3137,-0.3137,-0.3133,-0.3132,-0.3129,-0.3128,-0.3128,-0.3123,-0.3124,-0.3125,-0.3128,-0.3123,-0.3121,-0.312,-0.3131,-0.3131,-0.3131,-0.3131,0,0,-0.3143,-0.3141,-0.314,-0.3139,-0.3137,-0.3135,-0.3131,-0.3129,-0.3127,-0.3125,-0.3123,-0.3119,-0.312,-0.3119,-0.3119,-0.3117,-0.3112,-0.3119,-0.3119,-0.3118,-0.3107,-0.3105,-0.3104,-0.3113,-0.3113,-0.3113,-0.3107,0,-0.3136,-0.3129,-0.313,-0.3124,-0.3121,-0.3123,-0.312,-0.3119,-0.3119,-0.3117,-0.3117,-0.3114,-0.3116,-0.3115,-0.3113,-0.3113,-0.311,-0.3114,-0.3111,-0.3111,-0.3111,-0.3103,-0.3102,-0.3096,-0.3106,-0.3106,-0.3106,0,-0.3126,-0.3124,-0.3117,-0.3117,-0.3116,-0.3113,-0.3111,-0.3109,-0.3108,-0.3108,-0.3106,-0.3108,-0.3104,-0.3108,-0.3104,-0.3106,-0.3105,-0.3105,-0.3105,-0.3104,-0.3108,-0.3103,-0.3094,-0.3093,-0.3105,-0.3105,-0.3105,0,-0.3119,-0.3114,-0.311,-0.311,-0.3108,-0.3107,-0.3106,-0.3105,-0.3104,-0.3102,-0.3102,-0.31,-0.3099,-0.3097,-0.3098,-0.31,-0.3094,-0.3097,-0.3094,-0.3094,-0.3093,-0.3093,-0.3084,-0.3092,-0.3092,-0.3092,-0.3092,0,-0.311,-0.3106,-0.3107,-0.3105,-0.3101,-0.3102,-0.3098,-0.3098,-0.3097,-0.3095,-0.3097,-0.3095,-0.3096,-0.3094,-0.3095,-0.3092,-0.3091,-0.3091,-0.3092,-0.3091,-0.3091,-0.309,-0.3091,-0.3092,-0.3092,-0.3092,-0.3092,0,-0.3101,-0.3102,-0.3098,-0.3097,-0.3097,-0.3094,-0.3094,-0.3092,-0.3092,-0.309,-0.3089,-0.309,-0.3088,-0.3088,-0.3086,-0.3087,-0.3083,-0.3083,-0.3083,-0.3083,-0.308,-0.3081,-0.3071,-0.307,-0.3079,-0.3078,-0.3078,0,-0.3096,-0.3093,-0.3092,-0.3091,-0.3091,-0.3088,-0.3087,-0.3089,-0.3087,-0.3086,-0.3084,-0.3083,-0.3081,-0.3078,-0.3078,-0.3077,-0.3078,-0.3074,-0.3077,-0.3077,-0.3078,-0.3078,-0.3078,-0.3074,-0.3073,-0.3073,-0.3073,0,-0.3086,-0.3086,-0.3085,-0.3083,-0.3082,-0.3081,-0.308,-0.3078,-0.308,-0.3078,-0.3076,-0.3075,-0.3074,-0.3072,-0.3071,-0.3071,-0.3072,-0.3072,-0.3072,-0.3071,-0.3071,-0.3071,-0.3081,-0.3072,-0.3073,-0.3073,-0.3073,-0.3073,-0.3078,-0.3076,-0.3076,-0.3074,-0.3074,-0.3073,-0.3071,-0.3071,-0.307,-0.3068,-0.3069,-0.3067,-0.3067,-0.3066,-0.3065,-0.3064,-0.3065,-0.3064,-0.3064,-0.3064,-0.3063,-0.3071,-0.3064,-0.3064,-0.3064,-0.3064,-0.3064,0,-0.3069,-0.3069,-0.3067,-0.3066,-0.3065,-0.3067,-0.3066,-0.3065,-0.3063,-0.3062,-0.3061,-0.3059,-0.3058,-0.3059,-0.3057,-0.3056,-0.3057,-0.3056,-0.3056,-0.3056,-0.3062,-0.3063,-0.3055,-0.3055,-0.3055,-0.3055,-0.3055,-0.3055,-0.3064,-0.306,-0.3061,-0.3058,-0.3058,-0.3056,-0.3055,-0.3055,-0.3055,-0.3053,-0.3051,-0.3052,-0.3052,-0.3051,-0.305,-0.305,-0.305,-0.3049,-0.3049,-0.3055,-0.3056,-0.3056,-0.3057,-0.3048,-0.3048,-0.3043,-0.3043,-0.3043]}]]